�������l�o���
Date,Time,MP-1(��Sv/h),MP-2(��Sv/h),MP-3(��Sv/h),MP-4(��Sv/h),MP-5(��Sv/h),MP-6(��Sv/h),MP-7(��Sv/h),MP-8(��Sv/h),����,����(m/s),���J
2022/09/12,00:00,0.596,0.840,0.532,1.024,0.733,0.341,0.591,0.557,�k�k��,4.2,�L
2022/09/12,00:10,0.596,0.842,0.532,1.022,0.731,0.339,0.590,0.556,�k��,3.6,��
2022/09/12,00:20,0.596,0.841,0.533,1.023,0.734,0.339,0.592,0.557,�k�k��,4.7,��
2022/09/12,00:30,0.597,0.842,0.532,1.025,0.734,0.340,0.592,0.555,�k�k��,4.2,��
2022/09/12,00:40,0.596,0.843,0.533,1.022,0.734,0.339,0.592,0.557,�k�k��,4.7,��
2022/09/12,00:50,0.595,0.840,0.533,1.024,0.734,0.339,0.592,0.556,�k�k��,4.2,��
2022/09/12,01:00,0.595,0.841,0.532,1.023,0.734,0.340,0.591,0.558,�k�k��,3.6,��
2022/09/12,01:10,0.596,0.842,0.533,1.025,0.734,0.339,0.591,0.558,�k�k��,3.9,��
2022/09/12,01:20,0.595,0.842,0.532,1.025,0.734,0.340,0.592,0.558,�k�k��,3.5,��
2022/09/12,01:30,0.597,0.841,0.533,1.024,0.734,0.340,0.592,0.559,�k�k��,3.4,��
2022/09/12,01:40,0.596,0.843,0.533,1.024,0.734,0.339,0.591,0.555,�k�k��,3.0,��
2022/09/12,01:50,0.597,0.841,0.531,1.025,0.734,0.338,0.592,0.558,�k�k��,3.1,��
2022/09/12,02:00,0.596,0.842,0.533,1.023,0.734,0.339,0.591,0.558,�k�k��,3.4,��
2022/09/12,02:10,0.598,0.843,0.534,1.025,0.733,0.339,0.592,0.557,�k�k��,3.9,��
2022/09/12,02:20,0.597,0.842,0.534,1.024,0.733,0.340,0.592,0.557,�k�k��,3.9,��
2022/09/12,02:30,0.596,0.841,0.533,1.023,0.734,0.339,0.592,0.558,�k�k��,3.9,��
2022/09/12,02:40,0.599,0.842,0.533,1.023,0.735,0.340,0.591,0.557,�k�k��,3.6,��
2022/09/12,02:50,0.595,0.841,0.533,1.024,0.735,0.341,0.592,0.558,�k�k��,3.7,��
2022/09/12,03:00,0.596,0.841,0.533,1.022,0.735,0.340,0.591,0.557,�k�k��,4.0,��
2022/09/12,03:10,0.597,0.841,0.534,1.024,0.734,0.339,0.591,0.556,�k�k��,4.2,��
2022/09/12,03:20,0.595,0.843,0.533,1.024,0.733,0.340,0.594,0.557,�k�k��,3.8,��
2022/09/12,03:30,0.597,0.842,0.532,1.023,0.733,0.339,0.592,0.558,�k�k��,4.3,��
2022/09/12,03:40,0.596,0.841,0.534,1.025,0.735,0.340,0.593,0.558,�k�k��,3.6,��
2022/09/12,03:50,0.596,0.843,0.534,1.024,0.732,0.340,0.592,0.557,�k�k��,3.9,��
2022/09/12,04:00,0.596,0.842,0.532,1.026,0.733,0.339,0.593,0.557,�k�k��,4.4,��
2022/09/12,04:10,0.597,0.841,0.532,1.024,0.734,0.340,0.593,0.556,�k�k��,4.0,��
2022/09/12,04:20,0.596,0.840,0.533,1.023,0.732,0.340,0.594,0.557,�k�k��,4.2,��
2022/09/12,04:30,0.595,0.840,0.532,1.022,0.733,0.339,0.593,0.557,�k�k��,4.3,��
2022/09/12,04:40,0.596,0.843,0.530,1.026,0.733,0.340,0.595,0.557,�k�k��,3.9,��
2022/09/12,04:50,0.596,0.840,0.532,1.024,0.733,0.341,0.592,0.558,�k�k��,4.2,��
2022/09/12,05:00,0.595,0.842,0.533,1.024,0.734,0.340,0.594,0.557,�k�k��,4.2,��
2022/09/12,05:10,0.596,0.841,0.532,1.023,0.734,0.340,0.593,0.557,�k�k��,4.2,��
2022/09/12,05:20,0.597,0.842,0.532,1.023,0.734,0.338,0.594,0.557,�k,4.4,��
2022/09/12,05:30,0.596,0.841,0.532,1.023,0.734,0.340,0.593,0.556,�k,4.4,��
2022/09/12,05:40,0.595,0.842,0.532,1.025,0.734,0.341,0.594,0.557,�k,4.3,��
2022/09/12,05:50,0.596,0.841,0.532,1.023,0.735,0.338,0.594,0.559,�k,4.8,��
2022/09/12,06:00,0.596,0.841,0.533,1.024,0.734,0.340,0.595,0.557,�k,4.7,��
2022/09/12,06:10,0.597,0.839,0.532,1.025,0.734,0.339,0.592,0.557,�k�k��,5.0,��
2022/09/12,06:20,0.596,0.841,0.534,1.024,0.734,0.341,0.593,0.558,�k�k��,4.6,��
2022/09/12,06:30,0.597,0.842,0.534,1.025,0.734,0.340,0.592,0.556,�k�k��,4.9,��
2022/09/12,06:40,0.599,0.844,0.532,1.024,0.733,0.341,0.594,0.556,�k�k��,4.5,��
2022/09/12,06:50,0.597,0.841,0.532,1.024,0.733,0.340,0.593,0.557,�k�k��,4.6,��
2022/09/12,07:00,0.597,0.843,0.532,1.026,0.733,0.339,0.594,0.557,�k,3.9,��
2022/09/12,07:10,0.597,0.842,0.532,1.023,0.731,0.339,0.593,0.557,�k,3.8,��
2022/09/12,07:20,0.595,0.841,0.531,1.026,0.732,0.338,0.595,0.557,�k,3.6,��
2022/09/12,07:30,0.598,0.841,0.531,1.025,0.734,0.338,0.594,0.556,�k�k��,3.5,��
2022/09/12,07:40,0.597,0.840,0.531,1.027,0.731,0.340,0.594,0.558,�k,3.0,��
2022/09/12,07:50,0.598,0.840,0.530,1.026,0.733,0.338,0.593,0.558,�k�k��,2.3,��
2022/09/12,08:00,0.596,0.841,0.532,1.024,0.733,0.339,0.593,0.557,�k�k��,2.3,��
2022/09/12,08:10,0.597,0.839,0.529,1.024,0.734,0.337,0.592,0.557,�k��,2.3,��
2022/09/12,08:20,0.597,0.838,0.533,1.024,0.733,0.338,0.590,0.555,�k�k��,1.7,��
2022/09/12,08:30,0.595,0.837,0.532,1.024,0.732,0.338,0.591,0.556,�k�k��,2.6,��
2022/09/12,08:40,0.596,0.837,0.533,1.025,0.732,0.338,0.591,0.555,�k��,2.2,��
2022/09/12,08:50,0.593,0.837,0.530,1.022,0.733,0.339,0.591,0.555,�k�k��,2.6,��
2022/09/12,09:00,0.594,0.839,0.533,1.025,0.733,0.338,0.591,0.554,�k�k��,1.9,��
2022/09/12,09:10,0.595,0.838,0.531,1.023,0.732,0.337,0.593,0.555,�k�k��,2.3,��
2022/09/12,09:20,0.594,0.837,0.531,1.025,0.735,0.339,0.590,0.555,�k��,2.8,��
2022/09/12,09:30,0.598,0.837,0.531,1.026,0.733,0.339,0.593,0.554,�k�k��,2.6,��
2022/09/12,09:40,0.596,0.841,0.531,1.024,0.735,0.337,0.591,0.555,�k�k��,3.0,��
2022/09/12,09:50,0.597,0.841,0.532,1.026,0.733,0.340,0.591,0.555,�k��,3.9,��
2022/09/12,10:00,0.597,0.839,0.530,1.025,0.735,0.338,0.592,0.556,�k�k��,4.0,��
2022/09/12,10:10,0.596,0.839,0.530,1.024,0.732,0.339,0.592,0.556,�k��,3.9,��
2022/09/12,10:20,0.593,0.840,0.532,1.022,0.733,0.338,0.592,0.555,�k��,3.7,��
2022/09/12,10:30,0.597,0.841,0.532,1.026,0.732,0.339,0.591,0.556,�k��,3.1,��
2022/09/12,10:40,0.596,0.842,0.531,1.025,0.733,0.338,0.593,0.556,�k�k��,3.7,��
2022/09/12,10:50,0.599,0.840,0.530,1.026,0.733,0.340,0.593,0.555,�k�k��,3.5,��
2022/09/12,11:00,0.597,0.841,0.531,1.028,0.736,0.340,0.593,0.556,�k��,2.9,��
2022/09/12,11:10,0.598,0.841,0.534,1.024,0.735,0.339,0.592,0.556,�k��,3.5,��
2022/09/12,11:20,0.597,0.840,0.532,1.028,0.735,0.341,0.591,0.556,�k��,2.6,��
2022/09/12,11:30,0.597,0.842,0.534,1.025,0.734,0.339,0.592,0.557,�k��,3.6,��
2022/09/12,11:40,0.598,0.844,0.533,1.026,0.737,0.340,0.591,0.558,�k��,3.4,��
2022/09/12,11:50,0.596,0.844,0.532,1.025,0.735,0.339,0.592,0.557,�k��,3.4,��
2022/09/12,12:00,0.598,0.841,0.534,1.025,0.735,0.339,0.592,0.555,�k��,3.0,��
2022/09/12,12:10,0.599,0.843,0.533,1.024,0.736,0.338,0.593,0.557,���k��,2.9,��
2022/09/12,12:20,0.597,0.845,0.533,1.026,0.738,0.339,0.591,0.556,���k��,3.0,��
2022/09/12,12:30,0.597,0.845,0.534,1.024,0.737,0.338,0.594,0.557,���k��,3.0,��
2022/09/12,12:40,0.598,0.842,0.533,1.026,0.738,0.338,0.593,0.559,�k��,2.8,��
2022/09/12,12:50,0.598,0.844,0.535,1.025,0.737,0.339,0.593,0.557,���k��,3.5,��
2022/09/12,13:00,0.599,0.844,0.534,1.026,0.736,0.338,0.594,0.558,�k��,3.3,��
2022/09/12,13:10,0.598,0.844,0.535,1.026,0.736,0.339,0.592,0.558,���k��,3.7,��
2022/09/12,13:20,0.600,0.847,0.534,1.026,0.737,0.340,0.593,0.557,�k��,3.8,��
2022/09/12,13:30,0.598,0.843,0.533,1.027,0.737,0.340,0.592,0.558,�k��,3.7,��
2022/09/12,13:40,0.596,0.844,0.532,1.027,0.738,0.339,0.593,0.557,�k��,3.3,��
2022/09/12,13:50,0.596,0.844,0.534,1.025,0.738,0.339,0.593,0.557,�k��,3.9,��
2022/09/12,14:00,0.596,0.845,0.533,1.025,0.736,0.340,0.594,0.559,���k��,3.3,��
2022/09/12,14:10,0.596,0.847,0.533,1.026,0.737,0.339,0.594,0.557,�k��,3.6,��
2022/09/12,14:20,0.596,0.843,0.534,1.029,0.735,0.339,0.592,0.557,�k��,3.1,��
2022/09/12,14:30,0.596,0.845,0.533,1.028,0.733,0.341,0.592,0.557,�k�k��,4.1,��
2022/09/12,14:40,0.595,0.846,0.535,1.029,0.737,0.340,0.593,0.558,�k��,3.3,��
2022/09/12,14:50,0.597,0.845,0.534,1.027,0.738,0.339,0.591,0.559,�k��,3.0,��
2022/09/12,15:00,0.595,0.845,0.533,1.030,0.736,0.340,0.591,0.558,�k��,3.3,��
2022/09/12,15:10,0.596,0.846,0.534,1.028,0.737,0.340,0.592,0.557,�k��,3.6,��
2022/09/12,15:20,0.597,0.843,0.534,1.028,0.736,0.340,0.591,0.557,���k��,2.9,��
2022/09/12,15:30,0.598,0.845,0.534,1.029,0.737,0.339,0.592,0.557,�k��,2.6,��
2022/09/12,15:40,0.595,0.847,0.533,1.026,0.736,0.338,0.593,0.556,�k�k��,3.3,��
2022/09/12,15:50,0.595,0.847,0.534,1.027,0.738,0.338,0.593,0.556,�k��,3.0,��
2022/09/12,16:00,0.597,0.846,0.534,1.027,0.735,0.338,0.592,0.557,�k��,2.8,��
2022/09/12,16:10,0.599,0.847,0.533,1.028,0.736,0.340,0.592,0.558,�k��,2.0,��
2022/09/12,16:20,0.599,0.845,0.534,1.028,0.740,0.338,0.592,0.556,�k��,2.5,��
2022/09/12,16:30,0.599,0.845,0.534,1.029,0.739,0.340,0.592,0.556,�k��,2.8,��
2022/09/12,16:40,0.598,0.847,0.533,1.027,0.739,0.340,0.592,0.557,�k��,2.3,��
2022/09/12,16:50,0.597,0.848,0.535,1.028,0.738,0.340,0.591,0.556,���k��,2.3,��
2022/09/12,17:00,0.597,0.847,0.532,1.027,0.740,0.341,0.593,0.557,���k��,1.7,��
2022/09/12,17:10,0.597,0.845,0.533,1.028,0.738,0.340,0.592,0.558,�k��,1.7,��
2022/09/12,17:20,0.597,0.844,0.531,1.028,0.739,0.341,0.591,0.557,���k��,1.7,��
2022/09/12,17:30,0.599,0.845,0.534,1.029,0.740,0.340,0.593,0.558,�k��,1.7,��
2022/09/12,17:40,0.598,0.848,0.535,1.029,0.740,0.341,0.591,0.559,���k��,1.5,��
2022/09/12,17:50,0.598,0.849,0.535,1.030,0.739,0.340,0.592,0.560,���k��,1.2,��
2022/09/12,18:00,0.599,0.848,0.536,1.031,0.740,0.340,0.594,0.558,��,1.1,��
2022/09/12,18:10,0.598,0.849,0.535,1.029,0.740,0.340,0.593,0.559,���k��,1.5,��
2022/09/12,18:20,0.597,0.847,0.536,1.028,0.741,0.341,0.594,0.559,���k��,0.9,��
2022/09/12,18:30,0.600,0.849,0.535,1.027,0.738,0.341,0.592,0.558,���k��,1.4,��
2022/09/12,18:40,0.597,0.848,0.535,1.028,0.739,0.340,0.593,0.559,�쓌,1.2,��
2022/09/12,18:50,0.598,0.849,0.536,1.028,0.740,0.339,0.593,0.557,���쓌,1.2,��
2022/09/12,19:00,0.599,0.850,0.535,1.029,0.737,0.342,0.591,0.556,���쓌,0.9,��
2022/09/12,19:10,0.598,0.849,0.536,1.029,0.740,0.342,0.593,0.558,��,1.1,��
2022/09/12,19:20,0.598,0.849,0.535,1.030,0.738,0.341,0.592,0.558,��,0.8,��
2022/09/12,19:30,0.598,0.850,0.536,1.029,0.737,0.342,0.592,0.558,��쓌,0.8,��
2022/09/12,19:40,0.598,0.853,0.535,1.028,0.740,0.341,0.593,0.558,��쓌,1.7,��
2022/09/12,19:50,0.597,0.849,0.535,1.029,0.738,0.340,0.592,0.557,��쓌,0.9,��
2022/09/12,20:00,0.599,0.850,0.537,1.030,0.738,0.341,0.594,0.557,�k,0.6,��
2022/09/12,20:10,0.598,0.850,0.536,1.028,0.741,0.341,0.593,0.557,-,CALM,��
2022/09/12,20:20,0.598,0.850,0.535,1.028,0.741,0.340,0.592,0.558,-,CALM,��
2022/09/12,20:30,0.599,0.852,0.536,1.028,0.738,0.341,0.594,0.557,��쓌,1.1,��
2022/09/12,20:40,0.596,0.849,0.536,1.029,0.739,0.340,0.593,0.557,-,CALM,��
2022/09/12,20:50,0.599,0.850,0.535,1.027,0.740,0.341,0.592,0.558,��쐼,0.6,��
2022/09/12,21:00,0.598,0.850,0.535,1.029,0.738,0.340,0.593,0.557,��,0.6,��
2022/09/12,21:10,0.598,0.850,0.534,1.029,0.738,0.339,0.592,0.557,-,CALM,��
2022/09/12,21:20,0.599,0.851,0.535,1.028,0.740,0.341,0.594,0.558,��쓌,0.9,��
2022/09/12,21:30,0.599,0.850,0.535,1.030,0.740,0.340,0.591,0.558,-,CALM,��
2022/09/12,21:40,0.598,0.851,0.535,1.029,0.739,0.341,0.592,0.559,�쐼,0.6,��
2022/09/12,21:50,0.598,0.850,0.535,1.029,0.738,0.340,0.593,0.558,���쐼,0.8,��
2022/09/12,22:00,0.598,0.851,0.536,1.029,0.740,0.341,0.593,0.556,-,CALM,��
2022/09/12,22:10,0.598,0.848,0.536,1.031,0.739,0.340,0.595,0.557,-,CALM,��
2022/09/12,22:20,0.598,0.848,0.535,1.029,0.739,0.342,0.593,0.557,-,CALM,��
2022/09/12,22:30,0.598,0.849,0.537,1.027,0.740,0.342,0.593,0.558,�k�k��,0.6,��
2022/09/12,22:40,0.598,0.849,0.535,1.029,0.739,0.341,0.594,0.558,�k�k��,0.8,��
2022/09/12,22:50,0.598,0.850,0.536,1.029,0.739,0.341,0.593,0.559,�k,0.6,��
2022/09/12,23:00,0.598,0.851,0.536,1.030,0.741,0.342,0.595,0.558,�k�k��,0.9,��
2022/09/12,23:10,0.598,0.849,0.535,1.028,0.740,0.341,0.594,0.560,�k�k��,1.2,��
2022/09/12,23:20,0.598,0.849,0.536,1.030,0.740,0.343,0.593,0.559,�k,1.2,��
2022/09/12,23:30,0.597,0.849,0.536,1.029,0.741,0.342,0.593,0.558,�k,0.6,��
2022/09/12,23:40,0.598,0.849,0.536,1.030,0.741,0.344,0.593,0.558,�k,0.6,��
2022/09/12,23:50,0.599,0.850,0.537,1.028,0.739,0.341,0.594,0.559,�k,0.9,��
